STARLINK-5674, 55465

Orbit data source: Space-Track

STARLINK-5674, 55465 is a payload satellite owned by SpaceX/Seattle (US) in LEO that was launched on Thu, 02 Feb 2023 UTC via an FALCON 9 launch vehicle from the Air Force Eastern Test Range (AFETR). Payload-class satellites include a variety of spacecraft equipped with specific instruments for various scientific and technological missions. These include communications satellites like Starlink; space stations such as the ISS; scientific satellites like the Hubble; Earth observation satellites from companies like Planet Labs, Umbra, and HawkEye 360; GPS; miniature CubeSats for education and research; and military/defense satellites.

Loading next visibility...
Identifier
55465, 2023-015S
Orbit
LEO
Country
Flag of USUS
Related business
Manufacturer
SpaceX/Seattle
Mission
Operational Commercial Communications
Bus & Motor
STARLINK, Unknown motor
Mass
305 kg wet, ~290 kg dry
Launch date (UTC)
2023-02-02 (3 years ago)
Launch vehicle
FALCON 9
Launch site
Air Force Eastern Test Range (AFETR)
Object type
Payload
Rocket body
Debris
Shape & HBR
Box + 1 Pan, 10.1 m
Radar Cross Section
13.562 m², Large (>1 m²)

Expand to show TLE details & history
Last TLE update: 5 hours ago

TLE from 5 hours ago
0 STARLINK-5674
1 55465U 23015S   26132.83187403 -.00000151  00000-0  40292-5 0  9994
2 55465  43.0019 326.3122 0001124 255.7544 104.3182 15.27575179180538
Epoch: 2026-05-12T19:57Z
TLE epoch observation values (Epoch: 2026-05-12T19:57:53.916Z)
Latitude
-0.00007°
Longitude
156.23688°
Altitude
483.03 km
Speed
7.626 km/s
True Right ascension
21h 45m 14s
True Declination
0° 00' 00"
Sunlit
Object was in daylight at epoch
Visualization orbit readout
Latitude
Unknown
Longitude
Unknown
Altitude
Unknown
Speed
Unknown
Apparent Right ascension
Unknown
Apparent Declination
Unknown
Sunlit
N/A
Visualization observer readout
Local Sidereal Time
09:33:19
Azimuth
Unknown
Elevation
Unknown
Doppler factor
Unknown
Orbital elements
Apogee altitude
485.78 km
Perigee altitude
484.237 km
Semi-major axis
6,863.145 km
Eccentricity
0.00011
Inclination
43.0019°
RAAN
326.3122°
Arg. of periapsis
255.7544°
True anomaly
104.33068°
Mean anomaly
104.3182°
Eccentric anomaly
104.32444°
Mean motion
3.81732 °/min
Orbital period
94.31 mins
BSTAR
0.0000040292
Loading maneuver chart data...
Computing Atmospheric mass density...
Loading historical data...
Loading historical data...
Loading historical data...
Loading historical data...
Loading historical data...
Loading historical data...
Loading historical data...

Documentation

Showing up to 5 results
|